STARLINK-4672, 53592

Orbit data source: Space-Track

STARLINK-4672, 53592 is a payload satellite owned by SpaceX/Seattle (US) in LEO that was launched on Sun, 28 Aug 2022 UTC via an FALCON 9 launch vehicle from the Air Force Eastern Test Range (AFETR). Payload-class satellites include a variety of spacecraft equipped with specific instruments for various scientific and technological missions. These include communications satellites like Starlink; space stations such as the ISS; scientific satellites like the Hubble; Earth observation satellites from companies like Planet Labs, Umbra, and HawkEye 360; GPS; miniature CubeSats for education and research; and military/defense satellites.

Loading next visibility...
Identifier
53592, 2022-104E
Orbit
LEO
Country
Flag of USUS
Related business
Manufacturer
SpaceX/Seattle
Mission
Operational Commercial Communications
Bus & Motor
STARLINK, Unknown motor
Mass
300 kg wet, ~290 kg dry
Launch date (UTC)
2022-08-28 (3 years ago)
Launch vehicle
FALCON 9
Launch site
Air Force Eastern Test Range (AFETR)
Object type
Payload
Rocket body
Debris
Shape & HBR
Box + 1 Pan, 10.1 m
Radar Cross Section
13.562 m², Large (>1 m²)

Expand to show TLE details & history
Last TLE update: 22 hours ago

TLE from 22 hours ago
0 STARLINK-4672
1 53592U 22104E   26036.36980918 -.00000006  00000-0  17719-4 0  9990
2 53592  53.2196  29.3489 0001609  82.4405 277.6770 15.08838102191065
Epoch: 2026-02-05T08:52Z
TLE epoch observation values (Epoch: 2026-02-05T08:52:31.513Z)
Latitude
Longitude
120.69458°
Altitude
540.498 km
Speed
7.593 km/s
True Right ascension
01h 57m 23s
True Declination
0° 00' 00"
Sunlit
Object was in daylight at epoch
Visualization orbit readout
Latitude
Unknown
Longitude
Unknown
Altitude
Unknown
Speed
Unknown
Apparent Right ascension
Unknown
Apparent Declination
Unknown
Sunlit
N/A
Visualization observer readout
Local Sidereal Time
09:05:09
Azimuth
Unknown
Elevation
Unknown
Doppler factor
Unknown
Orbital elements
Apogee altitude
541.107 km
Perigee altitude
538.881 km
Semi-major axis
6,918.131 km
Eccentricity
0.00016
Inclination
53.2196°
RAAN
29.3489°
Arg. of periapsis
82.4405°
True anomaly
277.65873°
Mean anomaly
277.677°
Eccentric anomaly
277.66786°
Mean motion
3.7719 °/min
Orbital period
95.44 mins
BSTAR
0.000017719
Loading maneuver chart data...
Computing Atmospheric mass density...
Loading historical data...
Loading historical data...
Loading historical data...
Loading historical data...
Loading historical data...
Loading historical data...
Loading historical data...

Documentation

Showing up to 5 results
|